Location: Unspecified
(0.0000°N, 0.0000°E)
Time: 19:02:17
(UTC+00:00)

deb Explorer IX - Pass Details

Date: 20 November 2019
Orbit: 545 x 1105 km, 38.8° (Epoch: 08 December)

Event Time Altitude Azimuth Distance (km) Brightness Sun altitude
Rises 09:03:13 0° 305° (NW) 2,730 ? 45.7°
Reaches altitude 10° 09:05:31 10° 301° (WNW) 1,811 ? 46.2°
Maximum altitude 09:09:32 58° 221° (SW) 634 ? 47.0°
Drops below altitude 10° 09:13:37 10° 141° (SE) 1,837 ? 47.9°
Sets 09:15:58 0° 137° (SE) 2,775 ? 48.4°
